Location: Ashton River Estates
(39.1762°N, 77.0261°W)
Time: 23:29:57
(UTC+00:00)

Lacrosse 5 - Pass Details

Date: 29 October 2020
Orbit: 714 x 725 km, 57.0° (Epoch: 30 November)

Event Time Altitude Azimuth Distance (km) Brightness Sun altitude
Rises 23:09:37 0° 316° (NW) 3,118 5.7 -12.1°
Reaches altitude 10° 23:15:00 10° 3° (N) 2,197 4.3 -13.1°
Maximum altitude 23:15:16 10° 6° (N) 2,195 4.2 -13.2°
Drops below altitude 10° 23:15:33 10° 9° (N) 2,197 4.2 -13.2°
Enters shadow 23:17:50 - 34° (NNE) 2,414 4.2 -13.7°
